Flag for Germany Weather past 2 weeks in Homburg (Saar), Saarland, Germany

Now
61 °F

Broken clouds.


Feels Like: 61 °F
Forecast: 46 / 69 °F
Wind: 6 mph from Northwest

Location: Zweibrucken - Rheinland-Pfalz

Current Time: Sep 1, 2014 at 3:43:01 PM

Latest Report: Sep 1, 2014 at 2:50 PM


Visibility: N/A

Pressure: 30.15 "Hg

Humidity: 68%

Dew point: 50 °F

Location of Homburg (Saar)Location

Historic Weather in Homburg (Saar) — Graph

°F

Homburg (Saar) temperature yesterday

Maximum temperature yesterday: 61 °F (at 12:20 AM)
Minimum temperature yesterday: 54 °F (at 6:50 PM)
Average temperature yesterday: 58 °F

Past Weeks' High & Low Weather Summary

 TemperatureHumidityPressure
High73 °F (Aug 29, 4:20 PM)100% (Aug 19, 5:20 AM)30.18 "Hg (Aug 19, 5:20 AM)
Low45 °F (Aug 21, 6:50 AM)43% (Aug 22, 1:50 PM)29.65 "Hg (Aug 26, 5:20 AM)
Average59 °F78%30.00 "Hg
* Reported Aug 17 2:20 PM — Sep 1 2:20 PM, Homburg (Saar), Weather by CustomWeather, © 2014

Note: Actual official high and low records may vary slightly from our data, if they occured in-between our weather recording intervals... More about our weather records

Advertising

Homburg (Saar) weather history for previous 24 hours

 ConditionsComfort  
Time TempWeatherWind HumidityBarometerVisibility
2:20 PM
Sep 1
63 °FPartly sunny.3 mph64%30.15 "HgN/A
1:50 PM61 °FScattered clouds.3 mph68%30.15 "HgN/A
1:20 PM59 °FPartly sunny.7 mph72%30.15 "HgN/A
12:50 PM59 °FBroken clouds.6 mph72%30.18 "HgN/A
12:20 PM59 °FBroken clouds.7 mph68%30.18 "HgN/A
11:50 AM59 °FScattered clouds.5 mph68%30.18 "HgN/A
11:20 AM59 °FScattered clouds.7 mph72%30.18 "HgN/A
10:20 AM55 °FBroken clouds.6 mph82%30.15 "HgN/A
9:50 AM55 °FScattered clouds.7 mph82%30.15 "HgN/A
9:20 AM54 °FPassing clouds.2 mph88%30.15 "HgN/A
8:50 AM52 °FPassing clouds.3 mph94%30.12 "HgN/A
8:20 AM52 °FPassing clouds.3 mph94%30.12 "Hg4 mi
7:50 AM52 °FPassing clouds.3 mph94%30.12 "Hg4 mi
5:20 AM52 °FFog.6 mph94%30.09 "Hg2 mi
4:50 AM50 °FPassing clouds.5 mph100%30.09 "Hg3 mi
3:50 AM52 °FPassing clouds.5 mph100%30.09 "Hg5 mi
3:20 AM52 °FClear.3 mph100%30.09 "Hg4 mi
2:50 AM52 °FFog.5 mph100%30.07 "Hg1 mi
2:20 AM52 °FPassing clouds.3 mph100%30.07 "Hg4 mi
1:50 AM54 °FPassing clouds.7 mph94%30.07 "HgN/A
1:20 AM54 °FPassing clouds.8 mph94%30.07 "HgN/A
12:50 AM54 °FLight rain. Passing clouds.7 mph100%30.07 "HgN/A
12:20 AM54 °FClear.5 mph100%30.07 "Hg10 mi
8:50 PM
Aug 31
54 °FSunny.6 mph94%30.04 "Hg10 mi
8:20 PM54 °FSunny.6 mph94%30.01 "Hg10 mi
7:50 PM54 °FSunny.6 mph94%30.01 "Hg10 mi
7:20 PM54 °FPartly sunny.6 mph94%30.01 "HgN/A
6:50 PM54 °FRain. Scattered clouds.10 mph94%30.01 "HgN/A
6:20 PM59 °FLight rain. Partly sunny.8 mph88%30.01 "HgN/A
5:50 PM57 °FPartly sunny.9 mph88%30.01 "HgN/A
5:20 PM57 °FPartly sunny.6 mph94%30.01 "HgN/A
4:50 PM57 °FLight rain. Scattered clouds.8 mph94%29.98 "HgN/A
4:20 PM57 °FLight rain. Broken clouds.15 mph94%30.01 "Hg6 mi
3:50 PM61 °FPartly sunny.10 mph83%29.98 "HgN/A
3:20 PM61 °FBroken clouds.10 mph83%30.01 "HgN/A
Weather by CustomWeather, © 2014

See weather overviewHow to use our weather pages